Weather History for Smyrna, TN

Change the Weather History Date:

Sunday, December 9, 2012

  Actual Average Record
Temperature  
Mean Temperature 64 °F -  
Max Temperature 70 °F 49 °F 73 °F (2007)
Min Temperature 57 °F 36 °F 12 °F (2006)
Degree Days  
Heating Degree Days 2    
Growing Degree Days 14 (Base 50)    
Moisture  
Dew Point 60 °F    
Average Humidity 88    
Maximum Humidity 100    
Minimum Humidity 70    
Precipitation  
Precipitation 0.09 in - - ()
Sea Level Pressure  
Sea Level Pressure 29.92 in    
Wind  
Wind Speed 6 mph (SSW)    
Max Wind Speed 16 mph    
Max Gust Speed 21 mph    
Visibility 8 miles    
Events Rain    
Averages and records for this station are not official NWS values.
T = Trace of Precipitation, MM = Missing Value Source: NWS Daily Summary

Daily Weather History Graph

Daily Weather History Graph

Search for Another Location

Airport:

Trip Planner

Search our weather history database for the weather conditions in past years. The results will help you decide how hot, cold, wet, or windy it might be!

Date:

Astronomy

Dec. 09, 2012 Rise Set
Actual Time 6:45 AM CST 4:31 PM CST
Civil Twilight 6:16 AM CST 5:00 PM CST
Nautical Twilight 5:44 AM CST 5:32 PM CST
Astronomical Twilight 5:13 AM CST 6:03 PM CST
Moon 2:23 AM CST (12/9) 1:33 PM CST (12/9)
Length of Visible Light 10h 43m
Length of Day
9h 46m
Waning Crescent, 18% of the Moon is Illuminated
Dec 9
Waning Crescent
Dec 13
New
Dec 19
First Quarter
Dec 28
Full
Jan 4
Last Quarter

Hourly Weather History & Observations

Time (CST) Temp. Dew Point Humidity Pressure Visibility Wind Dir Wind Speed Gust Speed Precip Events Conditions
12:48 AM 57.2 °F 57.2 °F 100% 29.98 in 5.0 mi Calm Calm - N/A   Overcast
1:56 AM 59.9 °F 59.9 °F 100% 29.95 in 9.0 mi Calm Calm - 0.02 in   Scattered Clouds
2:56 AM 61.0 °F 59.9 °F 96% 29.95 in 9.0 mi Calm Calm - N/A   Mostly Cloudy
3:31 AM 60.8 °F 60.8 °F 100% 29.95 in 2.5 mi SE 5.8 mph - 0.04 in Rain Heavy Rain
3:45 AM 60.8 °F 60.8 °F 100% 29.96 in 6.0 mi South 5.8 mph - 0.04 in Rain Light Rain
3:56 AM 61.0 °F 59.9 °F 96% 29.94 in 7.0 mi South 4.6 mph - 0.04 in   Mostly Cloudy
4:40 AM 60.8 °F 60.8 °F 100% 29.96 in 6.0 mi Calm Calm - N/A   Mostly Cloudy
4:56 AM 61.0 °F 59.9 °F 96% 29.93 in 5.0 mi Calm Calm - N/A   Mostly Cloudy
5:32 AM 60.8 °F 60.8 °F 100% 29.95 in 6.0 mi South 5.8 mph - N/A   Mostly Cloudy
5:56 AM 61.0 °F 59.9 °F 96% 29.94 in 6.0 mi South 4.6 mph - N/A   Overcast
6:14 AM 62.6 °F 60.8 °F 94% 29.95 in 7.0 mi South 3.5 mph - N/A   Overcast
6:56 AM 61.0 °F 59.9 °F 96% 29.93 in 8.0 mi South 6.9 mph - N/A   Mostly Cloudy
7:11 AM 62.6 °F 60.8 °F 94% 29.96 in 7.0 mi SSW 6.9 mph - N/A   Mostly Cloudy
7:19 AM 62.6 °F 60.8 °F 94% 29.95 in 8.0 mi South 8.1 mph - N/A   Mostly Cloudy
7:26 AM 62.6 °F 60.8 °F 94% 29.95 in 7.0 mi South 10.4 mph - N/A   Mostly Cloudy
7:56 AM 63.0 °F 61.0 °F 93% 29.95 in 9.0 mi SSW 8.1 mph - N/A   Mostly Cloudy
8:05 AM 62.6 °F 60.8 °F 94% 29.96 in 9.0 mi SSW 8.1 mph - N/A   Overcast
8:23 AM 64.4 °F 60.8 °F 88% 29.96 in 10.0 mi SSW 9.2 mph - N/A   Overcast
8:46 AM 64.4 °F 62.6 °F 94% 29.97 in 7.0 mi SSW 5.8 mph - 0.01 in Rain Light Rain
8:56 AM 63.9 °F 61.9 °F 93% 29.96 in 10.0 mi SSW 9.2 mph 18.4 mph 0.01 in   Mostly Cloudy
9:13 AM 64.4 °F 62.6 °F 94% 29.98 in 10.0 mi SSW 9.2 mph - N/A   Mostly Cloudy
9:31 AM 64.4 °F 62.6 °F 94% 29.98 in 10.0 mi SSW 8.1 mph - N/A   Scattered Clouds
9:56 AM 64.9 °F 61.9 °F 90% 29.96 in 5.0 mi SSW 11.5 mph 16.1 mph 0.00 in Rain Light Rain
10:11 AM 64.4 °F 62.6 °F 94% 29.97 in 9.0 mi SSW 10.4 mph - 0.00 in Rain Light Rain
10:56 AM 65.8 °F 61.9 °F 87% 29.95 in 10.0 mi SSW 12.7 mph 17.3 mph 0.00 in   Overcast
11:56 AM 65.8 °F 61.9 °F 87% 29.92 in 10.0 mi SSW 8.1 mph - 0.02 in   Mostly Cloudy
12:21 PM 68.0 °F 62.6 °F 83% 29.93 in 10.0 mi SSW 10.4 mph - N/A   Scattered Clouds
12:56 PM 68.0 °F 61.9 °F 81% 29.89 in 10.0 mi SSW 10.4 mph 18.4 mph N/A   Mostly Cloudy
1:12 PM 69.8 °F 62.6 °F 78% 29.91 in 10.0 mi SSW 6.9 mph - N/A   Partly Cloudy
1:56 PM 70.0 °F 61.9 °F 75% 29.88 in 10.0 mi SSW 11.5 mph - N/A   Partly Cloudy
2:56 PM 68.9 °F 61.0 °F 76% 29.87 in 10.0 mi SSW 9.2 mph - N/A   Partly Cloudy
3:56 PM 68.9 °F 59.9 °F 73% 29.86 in 10.0 mi South 10.4 mph - N/A   Clear
4:56 PM 68.0 °F 59.0 °F 73% 29.85 in 10.0 mi SSW 11.5 mph 19.6 mph N/A   Clear
5:56 PM 66.9 °F 57.9 °F 73% 29.84 in 10.0 mi SSW 12.7 mph 18.4 mph N/A   Clear
6:56 PM 65.8 °F 55.9 °F 70% 29.84 in 10.0 mi SSW 16.1 mph 20.7 mph N/A   Clear
7:56 PM 64.9 °F 55.9 °F 73% 29.84 in 10.0 mi SSW 13.8 mph - N/A   Clear
8:56 PM 63.9 °F 55.9 °F 75% 29.83 in 10.0 mi SSW 12.7 mph 17.3 mph N/A   Partly Cloudy
9:56 PM 63.9 °F 56.8 °F 78% 29.80 in 10.0 mi SSW 10.4 mph - N/A   Clear
10:56 PM 63.9 °F 56.8 °F 78% 29.78 in 10.0 mi South 9.2 mph - N/A   Partly Cloudy
11:56 PM 63.9 °F 59.0 °F 84% 29.76 in 6.0 mi SSW 15.0 mph 20.7 mph 0.00 in Rain Rain